Flood From: 22-02-2018 16:00 Until: 23-02-2018 16:00 warning for: Flood Level: Yellow info button

Although rather usual in this region, locally or potentially dangerous phenomena are expected. (such as local winds, summer thunderstorms, rising streams or high waves) Be aware and pay attention to the latest weather updates, especially if you carry out activities exposed to weather or close to a stream or shoreline. 


Meteo18 Weather Cam more information Meteo18 Weather Cam


Thunder radar more information blitzortung!


Rain radar more information rain snow radar


Visit our other weather sites:

Template documentation
and downloads

And another site



Weather Underground History page Text

Daily Summary for September 6, 2016 Units:  Metric    English   Both
« Previous Day
Next Day »
Daily Weekly Monthly Yearly Custom
  High: Low: Average:
Temperature: -17.8 °C -8.2 °C -6.4 °C
Dew Point: -17.8 °C -10 °C -7.9 °C
Humidity: Humidity % 62 % 85 %
Wind Speed: 0 km/h 0 km/h 6.8 km/h
Wind Gust: 0 km/h - -
Wind:- - SSE
Pressure: 0 hPa 34554.1 hPa -
Precipitation: 0 mm    
Historical Graphs
 
 
Tabular Data for September 6, 2016
Time Temperature Dew Point Pressure Wind Wind Speed Wind Gust Humidity Rainfall Rate (Hourly)
-17.8 °C -17.8 °C 0 hPa Calm     Humidity % 0 mm
00:02 -7 °C -7.4 °C 34645.6 hPa Calm     96 % 0 mm
00:07 -7 °C -7.4 °C 34645.6 hPa Calm     96 % 0 mm
00:12 -7.1 °C -7.4 °C 34645.6 hPa Calm     96 % 0 mm
00:17 -7.1 °C -7.5 °C 34645.6 hPa Calm     96 % 0 mm
00:22 -7.2 °C -7.6 °C 34645.6 hPa Calm     96 % 0 mm
00:32 -7.2 °C -7.6 °C 34645.6 hPa Calm     96 % 0 mm
00:42 -7.2 °C -7.6 °C 34645.6 hPa Calm     96 % 0 mm
00:47 -7.2 °C -7.6 °C 34645.6 hPa Calm     96 % 0 mm
00:52 -7.2 °C -7.6 °C 34645.6 hPa Calm     96 % 0 mm
00:57 -7.2 °C -7.6 °C 34645.6 hPa Calm     96 % 0 mm
01:02 -7.2 °C -7.6 °C 34645.6 hPa Calm     96 % 0 mm
01:07 -7.2 °C -7.6 °C 34645.6 hPa Calm     96 % 0 mm
01:12 -7.3 °C -7.7 °C 34645.6 hPa Calm     96 % 0 mm
01:17 -7.3 °C -7.7 °C 34645.6 hPa Calm     96 % 0 mm
01:22 -7.3 °C -7.7 °C 34645.6 hPa Calm     96 % 0 mm
01:27 -7.3 °C -7.7 °C 34645.6 hPa Calm     96 % 0 mm
01:32 -7.3 °C -7.7 °C 34645.6 hPa Calm     96 % 0 mm
01:37 -7.3 °C -7.7 °C 34659.1 hPa NNE 5.1 km/h   96 % 0 mm
01:42 -7.3 °C -7.6 °C 34645.6 hPa NNE 2.6 km/h 12.9 km/h 97 % 0 mm
01:47 -7.2 °C -7.5 °C 34645.6 hPa Calm   12.9 km/h 97 % 0 mm
01:52 -7.2 °C -7.4 °C 34645.6 hPa Calm   12.9 km/h 97 % 0 mm
01:57 -7.1 °C -7.4 °C 34645.6 hPa WNW 2.6 km/h 12.9 km/h 97 % 0 mm
02:02 -7.1 °C -7.4 °C 34645.6 hPa WNW 2.6 km/h 7.7 km/h 97 % 0 mm
02:07 -7.1 °C -7.3 °C 34645.6 hPa NNW 2.6 km/h 5.1 km/h 97 % 0 mm
02:12 -7.1 °C -7.3 °C 34645.6 hPa NNW 2.6 km/h 7.7 km/h 97 % 0 mm
02:17 -7 °C -7.4 °C 34645.6 hPa NNW 2.6 km/h 7.7 km/h 96 % 0 mm
02:22 -6.9 °C -7.3 °C 34645.6 hPa Calm   7.7 km/h 96 % 0 mm
02:27 -6.9 °C -7.3 °C 34645.6 hPa North 2.6 km/h 7.7 km/h 96 % 0 mm
02:32 -6.9 °C -7.3 °C 34645.6 hPa Calm   5.1 km/h 96 % 0 mm
02:37 -6.9 °C -7.3 °C 34645.6 hPa North 2.6 km/h 5.1 km/h 95 % 0 mm
02:42 -6.9 °C -7.3 °C 34645.6 hPa North 2.6 km/h 5.1 km/h 95 % 0 mm
02:47 -6.9 °C -7.3 °C 34645.6 hPa NNW 2.6 km/h 2.6 km/h 95 % 0 mm
02:57 -6.9 °C -7.3 °C 34645.6 hPa NNW 2.6 km/h 5.1 km/h 95 % 0 mm
03:02 -6.9 °C -7.3 °C 34645.6 hPa NW 5.1 km/h 5.1 km/h 95 % 0 mm
03:07 -6.9 °C -7.3 °C 34645.6 hPa NNW 7.7 km/h 7.7 km/h 95 % 0 mm
03:12 -6.9 °C -7.4 °C 34645.6 hPa NNE 10.3 km/h 10.3 km/h 95 % 0 mm
03:17 -6.9 °C -7.4 °C 34645.6 hPa North 7.7 km/h 10.3 km/h 95 % 0 mm
03:22 -7 °C -7.4 °C 34645.6 hPa North 7.7 km/h 10.3 km/h 95 % 0 mm
03:27 -7 °C -7.4 °C 34645.6 hPa NE 2.6 km/h 10.3 km/h 95 % 0 mm
03:32 -7.1 °C -7.5 °C 34645.6 hPa North 2.6 km/h 10.3 km/h 95 % 0 mm
03:37 -7.1 °C -7.5 °C 34645.6 hPa NE 2.6 km/h 10.3 km/h 95 % 0 mm
03:42 -7 °C -7.4 °C 34645.6 hPa NE 2.6 km/h 12.9 km/h 95 % 0 mm
03:47 -7 °C -7.4 °C 34645.6 hPa NNE 5.1 km/h 12.9 km/h 96 % 0 mm
03:52 -7 °C -7.4 °C 34645.6 hPa NNE 7.7 km/h 12.9 km/h 96 % 0 mm
03:57 -7 °C -7.4 °C 34645.6 hPa North 2.6 km/h 12.9 km/h 96 % 0 mm
04:02 -6.9 °C -7.3 °C 34645.6 hPa North 2.6 km/h 15.6 km/h 96 % 0 mm
04:07 -6.9 °C -7.3 °C 34645.6 hPa NNE 5.1 km/h 15.6 km/h 96 % 0 mm
04:12 -6.9 °C -7.3 °C 34645.6 hPa Calm   18.2 km/h 96 % 0 mm
04:17 -6.9 °C -7.3 °C 34645.6 hPa NNE 5.1 km/h 18.2 km/h 96 % 0 mm
04:27 -6.9 °C -7.4 °C 34645.6 hPa North 10.3 km/h 10.3 km/h 95 % 0 mm
04:32 -6.9 °C -7.3 °C 34645.6 hPa NNE 2.6 km/h 18.2 km/h 96 % 0 mm
04:37 -6.9 °C -7.4 °C 34645.6 hPa North 2.6 km/h 18.2 km/h 95 % 0 mm
04:42 -6.9 °C -7.4 °C 34645.6 hPa NNE 2.6 km/h 18.2 km/h 95 % 0 mm
04:47 -6.9 °C -7.4 °C 34645.6 hPa Calm   12.9 km/h 95 % 0 mm
04:52 -7 °C -7.4 °C 34645.6 hPa NE 7.7 km/h 12.9 km/h 95 % 0 mm
04:57 -7 °C -7.4 °C 34645.6 hPa NNE 2.6 km/h 10.3 km/h 95 % 0 mm
05:02 -7 °C -7.4 °C 34645.6 hPa Calm   12.9 km/h 95 % 0 mm
05:12 -7.1 °C -7.5 °C 34645.6 hPa Calm   12.9 km/h 95 % 0 mm
05:17 -7.1 °C -7.5 °C 34645.6 hPa NNE 7.7 km/h 7.7 km/h 95 % 0 mm
05:32 -7.1 °C -7.5 °C 34645.6 hPa North 2.6 km/h 7.7 km/h 95 % 0 mm
05:37 -7.1 °C -7.6 °C 34645.6 hPa North 2.6 km/h 10.3 km/h 95 % 0 mm
05:42 -7.1 °C -7.6 °C 34645.6 hPa NNW 2.6 km/h 10.3 km/h 95 % 0 mm
05:47 -7.1 °C -7.6 °C 34645.6 hPa North 5.1 km/h 10.3 km/h 95 % 0 mm
05:52 -7.1 °C -7.6 °C 34645.6 hPa North 2.6 km/h 10.3 km/h 95 % 0 mm
06:02 -7.2 °C -7.6 °C 34645.6 hPa Calm   10.3 km/h 95 % 0 mm
06:07 -7.2 °C -7.6 °C 34645.6 hPa NNE 5.1 km/h 10.3 km/h 95 % 0 mm
06:12 -7.2 °C -7.7 °C 34645.6 hPa North 2.6 km/h 10.3 km/h 95 % 0 mm
06:17 -7.3 °C -7.7 °C 34645.6 hPa NNW 7.7 km/h 7.7 km/h 95 % 0 mm
06:22 -7.3 °C -7.7 °C 34645.6 hPa NNE 5.1 km/h 12.9 km/h 95 % 0 mm
06:27 -7.3 °C -7.8 °C 34645.6 hPa NE 5.1 km/h 12.9 km/h 95 % 0 mm
06:32 -7.4 °C -7.8 °C 34645.6 hPa Calm   12.9 km/h 95 % 0 mm
06:37 -7.4 °C -7.8 °C 34645.6 hPa North 5.1 km/h 12.9 km/h 95 % 0 mm
06:42 -7.4 °C -7.9 °C 34645.6 hPa NNW 2.6 km/h 12.9 km/h 95 % 0 mm
06:52 -7.5 °C -7.9 °C 34645.6 hPa Calm   7.7 km/h 96 % 0 mm
07:02 -7.6 °C -7.9 °C 34645.6 hPa Calm   5.1 km/h 96 % 0 mm
07:12 -7.6 °C -7.9 °C 34645.6 hPa Calm   10.3 km/h 96 % 0 mm
07:17 -7.6 °C -7.9 °C 34645.6 hPa NNW 7.7 km/h 7.7 km/h 96 % 0 mm
07:22 -7.6 °C -7.9 °C 34645.6 hPa NNW 5.1 km/h 10.3 km/h 96 % 0 mm
07:32 -7.7 °C -8.1 °C 34659.1 hPa North 7.7 km/h 12.9 km/h 96 % 0 mm
07:37 -7.7 °C -8 °C 34659.1 hPa NNW 5.1 km/h 18.2 km/h 96 % 0 mm
07:42 -7.7 °C -8 °C 34659.1 hPa North 10.3 km/h 18.2 km/h 96 % 0 mm
07:47 -7.7 °C -8 °C 34659.1 hPa NE 5.1 km/h 18.2 km/h 96 % 0 mm
07:52 -7.6 °C -7.9 °C 34659.1 hPa NNW 2.6 km/h 18.2 km/h 96 % 0 mm
07:57 -7.6 °C -7.9 °C 34659.1 hPa NNW 2.6 km/h 12.9 km/h 96 % 0 mm
08:02 -7.6 °C -7.9 °C 34659.1 hPa NNE 2.6 km/h 10.3 km/h 96 % 0 mm
08:07 -7.6 °C -7.9 °C 34659.1 hPa North 7.7 km/h 10.3 km/h 96 % 0 mm
08:12 -7.6 °C -7.9 °C 34659.1 hPa NNE 5.1 km/h 12.9 km/h 96 % 0 mm
08:17 -7.6 °C -7.9 °C 34659.1 hPa North 5.1 km/h 12.9 km/h 96 % 0 mm
08:22 -7.5 °C -7.9 °C 34659.1 hPa NNE 5.1 km/h 18.2 km/h 96 % 0 mm
08:27 -7.4 °C -7.8 °C 34659.1 hPa NNW 7.7 km/h 18.2 km/h 96 % 0 mm
08:32 -7.4 °C -7.8 °C 34659.1 hPa North 7.7 km/h 18.2 km/h 96 % 0 mm
08:37 -7.4 °C -7.9 °C 34659.1 hPa North 10.3 km/h 15.6 km/h 95 % 0 mm
08:42 -7.4 °C -7.9 °C 34659.1 hPa NNW 2.6 km/h 15.6 km/h 95 % 0 mm
08:47 -7.4 °C -7.8 °C 34659.1 hPa North 5.1 km/h 15.6 km/h 96 % 0 mm
08:52 -7.4 °C -7.9 °C 34659.1 hPa NNW 10.3 km/h 18.2 km/h 95 % 0 mm
08:57 -7.4 °C -7.9 °C 34659.1 hPa NE 5.1 km/h 18.2 km/h 95 % 0 mm
09:02 -7.4 °C -7.9 °C 34659.1 hPa NE 7.7 km/h 18.2 km/h 95 % 0 mm
09:12 -7.4 °C -7.9 °C 34659.1 hPa North 5.1 km/h 15.6 km/h 95 % 0 mm
09:22 -7.4 °C -7.9 °C 34659.1 hPa NE 7.7 km/h 15.6 km/h 95 % 0 mm
09:27 -7.4 °C -7.8 °C 34659.1 hPa NE 7.7 km/h 15.6 km/h 95 % 0 mm
09:32 -7.4 °C -7.8 °C 34669.3 hPa Calm   18.2 km/h 95 % 0 mm
09:37 -7.3 °C -7.8 °C 34669.3 hPa NNE 2.6 km/h 18.2 km/h 95 % 0 mm
09:42 -7.4 °C -7.9 °C 34669.3 hPa NNE 5.1 km/h 18.2 km/h 94 % 0 mm
09:47 -7.3 °C -7.8 °C 34669.3 hPa NNW 5.1 km/h 15.6 km/h 95 % 0 mm
09:52 -7.3 °C -7.8 °C 34669.3 hPa NW 2.6 km/h 12.9 km/h 95 % 0 mm
09:57 -7.3 °C -7.8 °C 34669.3 hPa NNE 7.7 km/h 12.9 km/h 95 % 0 mm
10:02 -7.4 °C -7.8 °C 34669.3 hPa NNW 5.1 km/h 12.9 km/h 95 % 0 mm
10:07 -7.4 °C -7.8 °C 34669.3 hPa North 7.7 km/h 12.9 km/h 95 % 0 mm
10:17 -7.4 °C -7.8 °C 34669.3 hPa North 7.7 km/h 12.9 km/h 95 % 0 mm
10:22 -7.4 °C -7.9 °C 34669.3 hPa NNW 2.6 km/h 15.6 km/h 95 % 0 mm
10:27 -7.4 °C -7.9 °C 34682.8 hPa NNW 2.6 km/h 15.6 km/h 95 % 0 mm
10:32 -7.4 °C -7.9 °C 34669.3 hPa North 10.3 km/h 15.6 km/h 95 % 0 mm
10:37 -7.4 °C -7.9 °C 34682.8 hPa North 2.6 km/h 18.2 km/h 95 % 0 mm
10:42 -7.4 °C -7.9 °C 34682.8 hPa NNE 10.3 km/h 18.2 km/h 95 % 0 mm
10:47 -7.4 °C -7.9 °C 34682.8 hPa North 10.3 km/h 18.2 km/h 95 % 0 mm
10:52 -7.4 °C -7.8 °C 34682.8 hPa North 5.1 km/h 15.6 km/h 95 % 0 mm
10:57 -7.4 °C -7.8 °C 34682.8 hPa North 5.1 km/h 15.6 km/h 95 % 0 mm
11:02 -7.3 °C -7.8 °C 34682.8 hPa North 2.6 km/h 15.6 km/h 95 % 0 mm
11:12 -7.3 °C -7.8 °C 34682.8 hPa NNW 5.1 km/h 15.6 km/h 94 % 0 mm
11:17 -7.2 °C -7.8 °C 34682.8 hPa NNW 7.7 km/h 15.6 km/h 94 % 0 mm
11:22 -7.2 °C -7.7 °C 34682.8 hPa NNE 10.3 km/h 18.2 km/h 94 % 0 mm
11:27 -7.2 °C -7.8 °C 34682.8 hPa North 10.3 km/h 18.2 km/h 93 % 0 mm
11:32 -7.1 °C -7.8 °C 34682.8 hPa North 5.1 km/h 18.2 km/h 93 % 0 mm
11:37 -7 °C -7.7 °C 34682.8 hPa NW 5.1 km/h 15.6 km/h 93 % 0 mm
11:42 -6.9 °C -7.6 °C 34682.8 hPa NNE 10.3 km/h 15.6 km/h 93 % 0 mm
11:47 -6.9 °C -7.6 °C 34682.8 hPa North 7.7 km/h 12.9 km/h 92 % 0 mm
11:52 -6.9 °C -7.6 °C 34682.8 hPa NNW 2.6 km/h 12.9 km/h 93 % 0 mm
11:57 -6.8 °C -7.6 °C 34682.8 hPa NNW 5.1 km/h 12.9 km/h 92 % 0 mm
12:02 -6.8 °C -7.6 °C 34682.8 hPa Calm   15.6 km/h 92 % 0 mm
12:07 -6.8 °C -7.6 °C 34669.3 hPa Calm   15.6 km/h 91 % 0 mm
12:12 -6.7 °C -7.6 °C 34669.3 hPa NE 5.1 km/h 15.6 km/h 91 % 0 mm
12:17 -6.8 °C -7.6 °C 34669.3 hPa North 5.1 km/h 18.2 km/h 91 % 0 mm
12:22 -6.8 °C -7.6 °C 34682.8 hPa NNW 5.1 km/h 20.8 km/h 91 % 0 mm
12:32 -6.8 °C -7.6 °C 34682.8 hPa NW 5.1 km/h 15.6 km/h 92 % 0 mm
12:37 -6.8 °C -7.5 °C 34682.8 hPa NE 12.9 km/h 15.6 km/h 92 % 0 mm
12:42 -6.8 °C -7.5 °C 34682.8 hPa North 7.7 km/h 15.6 km/h 92 % 0 mm
12:52 -6.7 °C -7.4 °C 34669.3 hPa NNW 7.7 km/h 23.3 km/h 92 % 0 mm
12:57 -6.6 °C -7.3 °C 34669.3 hPa NNW 5.1 km/h 23.3 km/h 92 % 0 mm
13:02 -6.5 °C -7.3 °C 34669.3 hPa NW 5.1 km/h 23.3 km/h 91 % 0 mm
13:07 -6.4 °C -7.3 °C 34669.3 hPa NNW 5.1 km/h 15.6 km/h 90 % 0 mm
13:12 -6.3 °C -7.4 °C 34669.3 hPa North 5.1 km/h 15.6 km/h 89 % 0 mm
13:17 -6.2 °C -7.2 °C 34659.1 hPa NNW 7.7 km/h 15.6 km/h 90 % 0 mm
13:22 -6 °C -7.2 °C 34659.1 hPa North 5.1 km/h 15.6 km/h 88 % 0 mm
13:27 -6 °C -7.3 °C 34659.1 hPa NNW 5.1 km/h 15.6 km/h 87 % 0 mm
13:32 -5.8 °C -7.1 °C 34659.1 hPa NNW 7.7 km/h 18.2 km/h 87 % 0 mm
13:37 -5.7 °C -7.1 °C 34659.1 hPa NW 10.3 km/h 18.2 km/h 86 % 0 mm
13:42 -5.4 °C -6.8 °C 34659.1 hPa NNW 10.3 km/h 18.2 km/h 86 % 0 mm
13:47 -5.4 °C -6.9 °C 34645.6 hPa NE 5.1 km/h 20.8 km/h 84 % 0 mm
13:52 -5.2 °C -7 °C 34645.6 hPa NE 7.7 km/h 20.8 km/h 82 % 0 mm
13:57 -5.2 °C -6.8 °C 34645.6 hPa NE 18.2 km/h 28.5 km/h 84 % 0 mm
14:02 -5.3 °C -6.9 °C 34645.6 hPa NNE 12.9 km/h 28.5 km/h 84 % 0 mm
14:12 -5.3 °C -7 °C 34645.6 hPa NNE 15.6 km/h 28.5 km/h 83 % 0 mm
14:17 -5.3 °C -7.1 °C 34645.6 hPa NE 12.9 km/h 28.5 km/h 82 % 0 mm
14:22 -5.2 °C -6.9 °C 34635.4 hPa NW 10.3 km/h 28.5 km/h 83 % 0 mm
14:27 -5.1 °C -6.9 °C 34635.4 hPa NE 12.9 km/h 28.5 km/h 81 % 0 mm
14:32 -5.1 °C -7.1 °C 34635.4 hPa NNE 12.9 km/h 23.3 km/h 80 % 0 mm
14:37 -4.9 °C -6.8 °C 34635.4 hPa NE 12.9 km/h 25.9 km/h 81 % 0 mm
14:42 -5 °C -7 °C 34635.4 hPa NE 10.3 km/h 28.5 km/h 80 % 0 mm
14:47 -5.1 °C -7.1 °C 34635.4 hPa NNE 28.5 km/h 28.5 km/h 80 % 0 mm
14:52 -4.9 °C -6.9 °C 34635.4 hPa NNE 12.9 km/h 36.2 km/h 80 % 0 mm
14:57 -4.8 °C -6.9 °C 34625.2 hPa NE 23.3 km/h 36.2 km/h 79 % 0 mm
15:02 -4.8 °C -7.2 °C 34625.2 hPa NE 10.3 km/h 36.2 km/h 77 % 0 mm
15:07 -4.8 °C -7.2 °C 34625.2 hPa NNE 10.3 km/h 31.1 km/h 77 % 0 mm
15:12 -4.8 °C -7.1 °C 34625.2 hPa NNE 28.5 km/h 31.1 km/h 78 % 0 mm
15:17 -4.7 °C -7.1 °C 34625.2 hPa NNE 15.6 km/h 31.1 km/h 77 % 0 mm
15:22 -4.7 °C -7.1 °C 34625.2 hPa NNE 2.6 km/h 31.1 km/h 77 % 0 mm
15:27 -4.8 °C -7.2 °C 34625.2 hPa NE 10.3 km/h 31.1 km/h 77 % 0 mm
15:32 -4.8 °C -7.2 °C 34625.2 hPa North 20.8 km/h 25.9 km/h 77 % 0 mm
15:37 -4.8 °C -7.1 °C 34625.2 hPa NE 25.9 km/h 25.9 km/h 78 % 0 mm
15:42 -4.8 °C -7.2 °C 34611.7 hPa NE 10.3 km/h 31.1 km/h 77 % 0 mm
15:47 -4.7 °C -7.2 °C 34611.7 hPa ENE 10.3 km/h 31.1 km/h 76 % 0 mm
15:52 -4.6 °C -7.1 °C 34611.7 hPa NNW 7.7 km/h 28.5 km/h 76 % 0 mm
15:57 -4.7 °C -7.2 °C 34611.7 hPa NE 28.5 km/h 28.5 km/h 76 % 0 mm
16:02 -4.7 °C -7.3 °C 34611.7 hPa NW 7.7 km/h 31.1 km/h 75 % 0 mm
16:07 -4.7 °C -7.3 °C 34611.7 hPa NNW 12.9 km/h 33.6 km/h 75 % 0 mm
16:12 -4.5 °C -7.2 °C 34611.7 hPa NE 18.2 km/h 33.6 km/h 74 % 0 mm
16:17 -4.3 °C -7.3 °C 34601.5 hPa North 15.6 km/h 33.6 km/h 72 % 0 mm
16:22 -4.2 °C -7.2 °C 34601.5 hPa NNE 12.9 km/h 28.5 km/h 72 % 0 mm
16:27 -4.2 °C -7.2 °C 34601.5 hPa WNW 12.9 km/h 31.1 km/h 72 % 0 mm
16:32 -4.3 °C -7.4 °C 34601.5 hPa North 20.8 km/h 31.1 km/h 71 % 0 mm
16:37 -4.3 °C -7.3 °C 34601.5 hPa NE 12.9 km/h 28.5 km/h 72 % 0 mm
16:42 -4.3 °C -7.6 °C 34601.5 hPa NE 10.3 km/h 28.5 km/h 70 % 0 mm
16:47 -4.2 °C -7.4 °C 34601.5 hPa NW 12.9 km/h 28.5 km/h 70 % 0 mm
16:57 -4.1 °C -7.1 °C 34601.5 hPa NNE 5.1 km/h 25.9 km/h 72 % 0 mm
17:02 -4.1 °C -7.3 °C 34591.4 hPa NE 10.3 km/h 25.9 km/h 70 % 0 mm
17:07 -3.9 °C -7.3 °C 34591.4 hPa NW 12.9 km/h 25.9 km/h 69 % 0 mm
17:12 -3.8 °C -7.6 °C 34591.4 hPa North 15.6 km/h 25.9 km/h 66 % 0 mm
17:17 -3.8 °C -7.4 °C 34591.4 hPa NNE 7.7 km/h 28.5 km/h 67 % 0 mm
17:22 -3.8 °C -7.7 °C 34591.4 hPa NNE 12.9 km/h 46.7 km/h 65 % 0 mm
17:27 -4.2 °C -7.8 °C 34591.4 hPa NE 18.2 km/h 46.7 km/h 67 % 0 mm
17:32 -4.2 °C -7.6 °C 34591.4 hPa North 20.8 km/h 46.7 km/h 69 % 0 mm
17:37 -4.1 °C -7.6 °C 34591.4 hPa North 15.6 km/h 41.4 km/h 68 % 0 mm
17:42 -4 °C -7.8 °C 34577.8 hPa NE 10.3 km/h 41.4 km/h 66 % 0 mm
17:52 -3.8 °C -7.9 °C 34591.4 hPa NNE 10.3 km/h 31.1 km/h 64 % 0 mm
17:57 -3.7 °C -7.7 °C 34591.4 hPa NE 10.3 km/h 25.9 km/h 64 % 0 mm
18:02 -3.8 °C -7.9 °C 34591.4 hPa NNE 25.9 km/h 25.9 km/h 63 % 0 mm
18:07 -3.9 °C -8 °C 34577.8 hPa North 20.8 km/h 33.6 km/h 64 % 0 mm
18:12 -4 °C -8.2 °C 34577.8 hPa NE 18.2 km/h 36.2 km/h 63 % 0 mm
18:17 -4 °C -8.3 °C 34577.8 hPa NE 18.2 km/h 36.2 km/h 62 % 0 mm
18:22 -3.9 °C -8 °C 34577.8 hPa East 10.3 km/h 33.6 km/h 64 % 0 mm
18:27 -4 °C -8.2 °C 34577.8 hPa NNE 23.3 km/h 33.6 km/h 63 % 0 mm
18:42 -4.1 °C -8.2 °C 34567.7 hPa North 7.7 km/h 33.6 km/h 63 % 0 mm
18:47 -4.1 °C -8.1 °C 34567.7 hPa NNE 15.6 km/h 33.6 km/h 64 % 0 mm
18:52 -4.1 °C -8.2 °C 34567.7 hPa North 7.7 km/h 33.6 km/h 63 % 0 mm
18:57 -4 °C -8.2 °C 34567.7 hPa North 18.2 km/h 33.6 km/h 63 % 0 mm
19:04 -4 °C -8.2 °C 34567.7 hPa North 2.6 km/h 33.6 km/h 63 % 0 mm
19:12 -4.1 °C -8.2 °C 34567.7 hPa NE 23.3 km/h 25.9 km/h 63 % 0 mm
19:17 -4.1 °C -8.3 °C 34567.7 hPa NE 18.2 km/h 41.4 km/h 63 % 0 mm
19:22 -4.2 °C -8.4 °C 34567.7 hPa NE 20.8 km/h 41.4 km/h 63 % 0 mm
19:32 -4.3 °C -8.3 °C 34567.7 hPa NW 5.1 km/h 28.5 km/h 64 % 0 mm
19:37 -4.3 °C -8.3 °C 34567.7 hPa NE 10.3 km/h 28.5 km/h 64 % 0 mm
19:42 -4.5 °C -8.4 °C 34567.7 hPa NNE 7.7 km/h 28.5 km/h 65 % 0 mm
19:47 -4.6 °C -8.5 °C 34567.7 hPa NE 18.2 km/h 31.1 km/h 65 % 0 mm
19:52 -4.7 °C -8.6 °C 34567.7 hPa NE 20.8 km/h 33.6 km/h 65 % 0 mm
19:57 -4.8 °C -8.5 °C 34567.7 hPa NE 10.3 km/h 33.6 km/h 66 % 0 mm
20:02 -4.8 °C -8.6 °C 34567.7 hPa NNE 12.9 km/h 33.6 km/h 66 % 0 mm
20:07 -4.9 °C -8.5 °C 34567.7 hPa NNE 10.3 km/h 33.6 km/h 67 % 0 mm
20:12 -5.1 °C -8.5 °C 34567.7 hPa NE 5.1 km/h 20.8 km/h 68 % 0 mm
20:22 -5.3 °C -8.7 °C 34567.7 hPa NNW 2.6 km/h 23.3 km/h 69 % 0 mm
20:32 -5.5 °C -8.7 °C 34567.7 hPa NE 7.7 km/h 15.6 km/h 70 % 0 mm
20:37 -5.6 °C -8.7 °C 34567.7 hPa NNW 5.1 km/h 15.6 km/h 71 % 0 mm
20:42 -5.7 °C -8.7 °C 34567.7 hPa NNE 10.3 km/h 18.2 km/h 71 % 0 mm
20:47 -5.7 °C -8.7 °C 34567.7 hPa NE 15.6 km/h 18.2 km/h 72 % 0 mm
20:52 -5.9 °C -8.8 °C 34567.7 hPa NE 10.3 km/h 20.8 km/h 72 % 0 mm
20:57 -5.9 °C -8.7 °C 34577.8 hPa NE 5.1 km/h 20.8 km/h 73 % 0 mm
21:02 -6.1 °C -8.7 °C 34577.8 hPa NNE 15.6 km/h 20.8 km/h 74 % 0 mm
21:07 -6.1 °C -8.7 °C 34577.8 hPa North 5.1 km/h 18.2 km/h 74 % 0 mm
21:12 -6.2 °C -8.9 °C 34577.8 hPa North 7.7 km/h 18.2 km/h 74 % 0 mm
21:17 -6.2 °C -8.9 °C 34577.8 hPa NNE 5.1 km/h 18.2 km/h 74 % 0 mm
21:22 -6.3 °C -8.8 °C 34577.8 hPa NNE 2.6 km/h 15.6 km/h 75 % 0 mm
21:32 -6.4 °C -9 °C 34577.8 hPa NNW 2.6 km/h 15.6 km/h 75 % 0 mm
21:37 -6.5 °C -8.9 °C 34577.8 hPa Calm   12.9 km/h 76 % 0 mm
21:42 -6.6 °C -9 °C 34577.8 hPa Calm   10.3 km/h 76 % 0 mm
21:47 -6.7 °C -9.1 °C 34577.8 hPa Calm   10.3 km/h 77 % 0 mm
21:52 -6.8 °C -9.1 °C 34577.8 hPa NNE 2.6 km/h 10.3 km/h 77 % 0 mm
21:57 -6.9 °C -9.2 °C 34577.8 hPa NE 2.6 km/h 5.1 km/h 77 % 0 mm
22:02 -7 °C -9.3 °C 34577.8 hPa Calm   5.1 km/h 77 % 0 mm
22:07 -7.1 °C -9.3 °C 34577.8 hPa Calm   5.1 km/h 77 % 0 mm
22:12 -7.1 °C -9.4 °C 34567.7 hPa Calm   5.1 km/h 77 % 0 mm
22:17 -7.2 °C -9.4 °C 34567.7 hPa Calm   5.1 km/h 77 % 0 mm
22:22 -7.2 °C -9.3 °C 34567.7 hPa NNE 2.6 km/h 2.6 km/h 78 % 0 mm
22:27 -7.2 °C -9.3 °C 34567.7 hPa NNE 2.6 km/h 2.6 km/h 78 % 0 mm
22:32 -7.2 °C -9.4 °C 34567.7 hPa Calm   2.6 km/h 77 % 0 mm
22:37 -7.2 °C -9.4 °C 34567.7 hPa Calm   2.6 km/h 78 % 0 mm
22:42 -7.2 °C -9.3 °C 34567.7 hPa Calm   2.6 km/h 78 % 0 mm
22:47 -7.1 °C -9.3 °C 34567.7 hPa Calm   2.6 km/h 77 % 0 mm
22:52 -7.1 °C -9.3 °C 34567.7 hPa Calm   2.6 km/h 77 % 0 mm
22:57 -7.1 °C -9.4 °C 34567.7 hPa Calm   2.6 km/h 77 % 0 mm
23:02 -7.3 °C -9.4 °C 34567.7 hPa Calm     78 % 0 mm
23:07 -7.4 °C -9.6 °C 34554.1 hPa North 2.6 km/h   78 % 0 mm
23:12 -7.6 °C -9.7 °C 34554.1 hPa North 2.6 km/h 7.7 km/h 79 % 0 mm
23:17 -7.8 °C -9.6 °C 34554.1 hPa North 5.1 km/h 7.7 km/h 81 % 0 mm
23:22 -7.8 °C -9.7 °C 34554.1 hPa NNE 2.6 km/h 7.7 km/h 81 % 0 mm
23:27 -7.9 °C -9.8 °C 34554.1 hPa NNE 2.6 km/h 7.7 km/h 81 % 0 mm
23:32 -8 °C -9.7 °C 34554.1 hPa North 2.6 km/h 7.7 km/h 82 % 0 mm
23:37 -7.9 °C -9.7 °C 34554.1 hPa Calm   10.3 km/h 82 % 0 mm
23:42 -7.9 °C -9.8 °C 34554.1 hPa NE 2.6 km/h 10.3 km/h 81 % 0 mm
23:52 -8.1 °C -9.9 °C 34554.1 hPa Calm   10.3 km/h 81 % 0 mm
23:57 -8.2 °C -10 °C 34554.1 hPa NNW 2.6 km/h 10.3 km/h 81 % 0 mm
Meteo18
Compliments of Weather Underground - 4 mb

Script developed by  Jim McMurry - jmcmurry@mwt.net Adapted for the template by  Wim van der Kuil - Leuven-Template.eu

You find our weather info also at:

European Weather Network

Weather Underground

Equipment we use:

Weather-station
Davis Vue

Weather-program
Meteobridge

Weather-server
Raspberry PI 2 B+

Provider
1 and 1

Davis Vue

Meteobridge

Raspberry PI 2 B+

1 and 1